GW6484 Weather Reports


time (UTC)temp
C
wind
direction
speed
KPH
gust
KPH
rain 1hr
cm
rain 24hr
cm
rain mn
cm
humidity
%
barometer
mb
20260505224125 28 65 0.0 0.0 0.00 1.24 1.24 85 1010.7
20260505223622 27 32 0.0 0.0 1.19 1.22 1.22 83 1010.7
20260505223118 28 59 0.0 0.0 0.00 1.17 1.17 83 1010.7
20260505222615 28 42 0.0 0.0 0.00 1.14 1.14 81 1010.7
20260505222111 28 50 0.0 0.0 0.00 1.14 1.14 79 1010.7
20260505221608 28 35 0.0 6.4 0.00 1.14 1.14 78 1010.7
20260505221104 29 45 1.6 3.2 0.00 1.14 1.14 78 1010.7
20260505220602 29 54 1.6 4.8 0.00 1.14 1.14 78 1010.7
20260505220100 29 56 0.0 0.0 0.00 1.14 1.14 81 1010.4
20260505215558 28 36 0.0 0.0 0.00 1.14 1.14 81 1010.7
20260505215055 29 50 0.0 3.2 0.00 1.14 1.14 79 1010.7
20260505214553 30 131 0.0 0.0 0.00 1.14 1.14 77 1010.7
20260505214050 29 131 0.0 0.0 0.00 1.14 1.14 78 1010.4
20260505213548 29 124 0.0 0.0 0.00 1.14 1.14 79 1010.4
20260505213044 29 67 0.0 3.2 0.00 1.14 1.14 79 1010.4
20260505212540 29 57 1.6 3.2 0.00 1.14 1.14 77 1010.4
20260505212038 29 65 0.0 0.0 0.00 1.14 1.14 79 1010.4
20260505211535 28 69 0.0 3.2 0.00 1.14 1.14 82 1010.4
20260505211031 28 45 0.0 0.0 0.00 1.14 1.14 85 1010.4
20260505210528 27 41 0.0 1.6 0.00 1.14 1.14 86 1010.4
20260505210025 27 47 0.0 0.0 0.00 1.14 1.14 88 1010.4
20260505205523 26 55 0.0 0.0 0.00 1.14 1.14 89 1010.4
20260505205020 26 53 0.0 0.0 0.00 1.14 1.14 90 1010.4
20260505204518 26 52 0.0 0.0 0.00 1.14 1.14 91 1010.4
20260505204015 26 56 0.0 0.0 0.00 1.14 1.14 91 1010.4
20260505203511 26 91 0.0 0.0 0.00 1.14 1.14 91 1010.7
20260505203008 26 46 0.0 0.0 0.00 1.14 1.14 91 1010.7
20260505202504 25 64 0.0 0.0 0.00 0.46 0.46 91 1010.4
20260505173246 25 170 1.6 8.0 0.00 0.46 0.46 90 1008.7
20260505172743 25 170 1.6 8.0 0.00 0.46 0.46 90 1008.7
20260505172240 25 170 1.6 8.0 0.00 0.46 0.46 90 1008.7
20260505171740 25 108 0.0 3.2 0.00 0.46 0.46 90 1008.7
20260505171237 25 108 0.0 3.2 0.00 0.46 0.46 90 1008.7
20260505170734 25 125 0.0 6.4 0.00 0.46 0.46 90 1008.7
20260505170231 25 163 1.6 6.4 0.00 0.46 0.46 90 1008.7
20260505165726 25 194 1.6 8.0 0.00 0.46 0.46 91 1009.0
20260505165222 25 91 0.0 0.0 0.00 0.46 0.46 92 1008.7
20260505164718 25 94 0.0 4.8 0.00 0.46 0.46 92 1008.7
20260505164215 25 306 1.6 3.2 0.00 0.46 0.46 91 1008.7
20260505163713 25 13 0.0 0.0 0.00 0.46 0.46 91 1008.7
20260505163212 25 352 0.0 0.0 0.00 0.46 0.46 91 1008.7
20260505162709 25 78 0.0 0.0 0.00 0.46 0.46 91 1008.7
20260505162206 25 225 0.0 4.8 0.00 0.46 0.46 91 1008.7
20260505161702 25 154 0.0 0.0 0.00 0.46 0.46 91 1009.0
20260505161200 25 74 0.0 0.0 0.00 0.46 0.46 91 1009.0
20260505160658 25 89 0.0 0.0 0.00 0.46 0.46 91 1009.0
20260505160155 25 76 0.0 0.0 0.00 0.46 0.46 91 1009.0
20260505153134 25 114 0.0 4.8 0.00 0.46 0.46 91 1009.3
20260505152631 25 86 0.0 1.6 1.19 0.38 0.38 91 1009.3
20260505152127 25 57 0.0 0.0 0.00 0.38 0.38 91 1009.3
20260505151622 25 74 0.0 0.0 0.00 0.38 0.38 91 1009.3
20260505151120 25 131 0.0 0.0 0.00 0.38 0.38 90 1009.3
20260505150616 25 37 0.0 0.0 0.00 0.38 0.38 90 1009.3
20260505150113 25 50 0.0 1.6 0.00 0.38 0.38 89 1009.7
20260505140541 26 62 0.0 0.0 0.00 0.03 0.03 91 1010.4
20260505092307 26 93 6.4 11.3 0.00 2.34 2.34 87 1010.0
20260505091804 26 93 6.4 11.3 0.00 2.34 2.34 87 1010.0
20260505091302 26 101 6.4 14.5 0.00 2.34 2.34 87 1010.0
20260505090759 26 115 3.2 6.4 0.00 2.34 2.34 87 1010.0
20260505090258 26 106 3.2 8.0 0.00 2.34 2.34 88 1009.7
20260505085754 26 90 8.0 12.9 0.00 2.34 2.34 88 1010.0
20260505085253 26 87 9.7 14.5 0.00 2.34 2.34 88 1010.0
20260505084749 26 101 3.2 11.3 0.00 2.34 2.34 88 1010.0
20260505084244 26 107 1.6 8.0 0.00 2.34 2.34 88 1010.0
20260505083740 26 98 1.6 6.4 0.00 2.34 2.34 89 1010.0
20260505083237 26 111 4.8 8.0 0.00 2.34 2.34 89 1010.0
20260505082733 26 114 6.4 17.7 0.00 2.34 2.34 88 1010.0
20260505082230 26 102 4.8 9.7 0.00 2.34 2.34 88 1010.0
20260505081726 26 106 6.4 11.3 0.00 2.34 2.34 88 1010.0
20260505081224 27 95 3.2 12.9 0.00 2.34 2.34 88 1010.0
20260505080720 26 105 4.8 12.9 1.19 2.31 2.31 88 1010.0
20260505080216 26 106 6.4 12.9 0.00 2.31 2.31 88 1010.0
20260505075712 26 88 6.4 12.9 0.00 2.31 2.31 88 1010.0
20260505075209 26 87 9.7 12.9 0.00 2.31 2.31 88 1010.0
20260505074706 26 96 6.4 14.5 0.00 2.31 2.31 88 1010.0
20260505074203 26 95 1.6 6.4 0.00 2.31 2.31 89 1010.0
20260505073701 26 93 6.4 11.3 0.00 2.31 2.31 89 1010.0
20260505073159 26 92 3.2 8.0 0.00 2.31 2.31 91 1010.0
20260505072654 26 112 0.0 0.0 0.00 2.31 2.31 91 1009.7
20260505072151 26 59 0.0 0.0 0.00 2.31 2.31 91 1009.7
20260505071646 25 68 0.0 0.0 0.00 2.31 2.31 91 1009.7
20260505071144 26 55 0.0 0.0 0.00 2.31 2.31 91 1009.7
20260505070641 26 123 1.6 4.8 0.00 2.31 2.31 90 1009.7
20260505070138 25 159 0.0 3.2 0.00 2.31 2.31 90 1009.7
20260505065633 26 97 0.0 3.2 0.00 2.31 2.31 90 1009.7
20260505065130 26 80 0.0 4.8 1.19 2.29 2.29 90 1009.7
20260505064627 26 105 0.0 4.8 0.00 2.29 2.29 90 1009.7
20260505064126 26 76 0.0 0.0 0.00 2.29 2.29 90 1009.7
20260505063623 26 86 0.0 0.0 0.00 2.29 2.29 90 1009.3
20260505063119 26 60 0.0 0.0 0.00 2.29 2.29 90 1009.7
20260505062615 26 66 0.0 0.0 0.00 2.26 2.26 90 1009.7
20260505062113 26 39 0.0 3.2 0.00 2.26 2.26 90 1009.7
20260505061609 26 81 0.0 3.2 0.00 2.26 2.26 90 1009.3
20260505061108 25 70 0.0 0.0 0.00 2.26 2.26 89 1009.3
20260505060605 25 115 3.2 9.7 0.00 2.26 2.26 89 1009.3
20260505055557 25 83 0.0 3.2 0.00 2.24 2.24 89 1009.7
20260505055054 25 67 0.0 0.0 0.00 2.21 2.21 89 1009.7
20260505054551 25 102 1.6 6.4 0.00 2.21 2.21 89 1009.7
20260505054049 25 65 0.0 4.8 0.00 2.18 2.18 89 1009.7
20260505053546 26 67 0.0 4.8 0.00 2.18 2.18 89 1009.7
20260505053042 25 79 0.0 6.4 0.00 2.16 2.16 90 1009.7
20260505052539 25 125 3.2 6.4 1.19 2.13 2.13 89 1009.7
20260505052037 26 152 4.8 11.3 0.00 2.11 2.11 89 1009.3
20260505051534 26 110 3.2 9.7 0.00 2.11 2.11 89 1009.3
20260505051032 26 131 3.2 8.0 0.00 2.11 2.11 89 1009.3
20260505050530 26 119 3.2 9.7 0.00 2.11 2.11 88 1009.3
20260505041457 26 170 3.2 6.4 0.00 2.03 2.03 87 1009.0
20260505040954 27 144 3.2 9.7 0.00 2.01 2.01 86 1009.0
20260505040452 27 122 0.0 1.6 0.00 2.01 2.01 86 1009.0
20260505035949 27 128 3.2 8.0 0.00 2.01 2.01 85 1009.0
20260505035444 27 144 3.2 6.4 0.00 2.01 2.01 85 1009.0
20260505034942 27 118 0.0 4.8 0.00 2.01 2.01 84 1009.0
20260505034438 28 144 3.2 9.7 0.00 2.01 2.01 83 1009.0
20260505033936 28 34 0.0 0.0 0.00 2.01 2.01 83 1009.0
20260505033432 28 60 0.0 0.0 0.00 2.01 2.01 83 1008.7
20260505032931 28 65 0.0 4.8 0.00 2.01 2.01 83 1008.7
20260505032427 28 91 0.0 3.2 0.00 2.01 2.01 83 1009.0
20260505031924 28 76 0.0 0.0 0.00 2.01 2.01 82 1009.0
20260505031421 28 85 1.6 6.4 0.00 2.01 2.01 81 1009.0
20260505030918 29 85 3.2 9.7 0.00 2.01 2.01 79 1009.0
20260505030413 28 87 1.6 6.4 0.00 2.01 2.01 80 1009.3
20260505025909 28 82 6.4 9.7 0.00 2.01 2.01 79 1009.3
20260505025407 28 88 1.6 4.8 0.00 2.01 2.01 79 1009.3
20260505024906 28 95 6.4 8.0 0.00 2.01 2.01 79 1009.3
20260505024403 28 81 4.8 6.4 0.00 2.01 2.01 79 1009.3
20260505023859 28 68 3.2 4.8 0.00 2.01 2.01 80 1009.3
20260505023357 28 74 4.8 6.4 0.00 2.01 2.01 80 1009.7
20260505022854 28 85 6.4 8.0 0.00 2.01 2.01 81 1009.7
20260505022351 28 84 4.8 8.0 0.00 2.01 2.01 83 1009.7
20260505021848 28 86 8.0 9.7 0.00 2.01 2.01 84 1010.0
20260505021344 28 85 6.4 8.0 0.00 2.01 2.01 84 1010.0
20260505020840 28 84 8.0 9.7 0.00 2.01 2.01 84 1010.0
20260505020336 28 86 6.4 9.7 0.00 2.01 2.01 84 1010.0
20260505015833 28 91 9.7 12.9 0.00 2.01 2.01 84 1010.4
20260505015330 28 93 9.7 11.3 0.00 2.01 2.01 84 1010.4
20260505014827 28 88 9.7 12.9 0.00 2.01 2.01 85 1010.0
20260505014324 28 95 9.7 11.3 0.00 2.01 2.01 85 1010.4
20260505013821 28 94 6.4 9.7 0.00 2.01 2.01 84 1010.4
20260505013318 28 78 4.8 4.8 0.00 2.01 2.01 83 1010.4
20260505012817 28 62 0.0 0.0 0.00 2.01 2.01 82 1010.4
20260505012314 28 56 0.0 0.0 0.00 2.01 2.01 83 1010.4
20260505011809 28 111 0.0 0.0 0.00 2.01 2.01 82 1010.4
20260505011307 28 58 0.0 0.0 0.00 2.01 2.01 83 1010.7
20260505010803 28 73 3.2 4.8 0.00 2.01 2.01 84 1010.7
20260505010259 28 81 0.0 0.0 0.00 2.01 2.01 85 1010.7
20260505005755 28 67 0.0 0.0 0.00 2.01 2.01 84 1010.7
20260505005252 28 248 1.6 6.4 0.00 2.01 2.01 83 1010.7
20260505004749 28 88 0.0 0.0 0.00 2.01 2.01 82 1010.7
20260505004245 28 57 0.0 0.0 0.00 2.01 2.01 83 1010.4
20260505003742 28 63 0.0 3.2 0.00 2.01 2.01 83 1010.4
20260505003240 27 109 1.6 4.8 0.00 2.01 2.01 85 1010.7
20260505002736 27 101 0.0 0.0 0.00 2.01 2.01 85 1010.4
20260505002234 27 127 1.6 6.4 0.00 2.01 2.01 85 1010.7
20260505001731 27 188 6.4 12.9 0.00 2.01 2.01 86 1010.7
20260505001229 27 78 0.0 3.2 0.00 2.01 2.01 87 1010.7
20260505000725 27 107 0.0 4.8 0.00 2.01 2.01 87 1010.7
20260505000226 27 145 3.2 8.0 0.00 2.01 2.01 86 1011.0
20260504235719 27 87 3.2 9.7 0.00 1.98 1.98 85 1011.0
20260504235215 27 78 0.0 6.4 0.00 1.98 1.98 86 1011.0
20260504234713 27 95 0.0 4.8 0.00 1.98 1.98 86 1011.0
20260504234210 27 55 0.0 0.0 0.00 1.98 1.98 85 1011.4
20260504233706 27 139 0.0 0.0 0.00 1.98 1.98 86 1011.4
20260504233202 27 92 1.6 6.4 0.00 1.98 1.98 86 1011.4
20260504232700 27 78 0.0 1.6 0.00 1.98 1.98 86 1011.4
20260504232156 27 105 0.0 0.0 0.00 1.98 1.98 86 1011.4
20260504231653 27 121 1.6 6.4 0.00 1.98 1.98 87 1011.4
20260504231149 27 70 0.0 0.0 0.00 1.98 1.98 86 1011.4
20260504230646 27 104 3.2 6.4 0.00 1.98 1.98 85 1011.4
20260504230145 27 88 4.8 12.9 0.00 1.98 1.98 85 1011.4
20260504225643 27 68 0.0 0.0 0.00 1.98 1.98 86 1011.4
20260504225138 27 46 0.0 0.0 0.00 1.98 1.98 87 1011.4
20260504224635 27 110 1.6 9.7 0.00 1.98 1.98 88 1011.4